SCP
0 0 0 0 0 0 0 0 0 0 0 0 0 0 0 0 0 0 0 0 0 1 1 1 1 1 1 1 1 1 1 1 1 1 1 1 1 1 1 1 1 1 0 0
0 0 0 0 0 0 0 0 0 0 0 0 0 0 0 0 0 0 0 0 0 0 1 1 1 1 1 1 1 1 1 1 1 1 1 1 1 1 1 1 1 1 0 0
0 0 0 0 0 0 0 0 0 0 0 0 0 0 0 0 0 0 0 0 0 0 1 1 1 1 1 1 1 1 1 1 1 1 1 1 1 1 1 1 1 1 1 0
0 0 0 0 0 0 0 0 0 0 0 0 0 0 0 0 0 0 0 0 0 0 1 1 1 1 1 1 1 1 1 1 1 1 1 1 1 1 1 1 1 1 1 0
0 0 0 0 0 0 0 0 0 0 0 0 0 0 0 0 0 0 0 0 0 0 0 1 1 1 1 1 1 1 1 1 1 1 1 1 1 1 1 1 1 1 1 1
0 0 0 0 0 0 0 0 0 0 0 0 0 0 0 0 0 0 0 0 0 0 0 0 1 1 1 1 1 1 1 1 1 1 1 1 1 1 1 1 1 1 1 0
0 0 0 0 0 0 0 0 0 0 0 0 0 0 0 0 0 0 0 0 0 0 0 0 0 0 0 0 0 0 1 1 1 1 1 1 1 1 1 1 1 1 0 0
0 0 0 0 0 0 0 0 0 0 0 0 0 0 0 0 0 0 0 0 0 0 0 0 0 0 0 0 0 0 1 1 1 1 0 0 0 0 0 0 0 0 0 0
0 0 0 0 0 0 0 0 0 0 0 0 0 0 0 0 0 0 0 0 0 0 0 0 0 0 0 0 0 1 1 1 1 1 0 0 0 0 0 0 0 0 0 0
0 0 0 0 0 0 0 0 0 0 0 0 0 0 0 0 0 0 0 0 0 0 0 0 0 0 0 0 0 1 1 1 1 1 0 0 0 0 0 0 0 0 0 0
0 0 0 0 0 0 0 0 0 0 0 0 0 0 0 0 0 0 0 0 0 0 0 0 0 0 0 0 0 1 1 1 1 1 0 0 0 0 0 0 0 0 0 0
0 0 0 0 0 0 0 0 0 0 0 0 0 0 0 0 0 0 0 0 0 0 0 0 0 0 0 0 0 1 1 1 1 1 0 0 0 0 0 0 0 0 0 0
0 0 0 0 0 0 0 0 0 0 0 0 0 0 0 0 0 0 0 0 0 0 0 0 0 0 0 0 0 0 1 1 1 1 0 0 0 0 0 0 0 0 0 0
0 0 0 0 0 0 0 0 0 0 0 0 0 0 0 0 0 0 0 0 0 0 0 0 0 0 0 0 0 0 0 0 0 0 0 0 0 0 0 0 0 0 0 0
0 0 0 0 0 0 0 0 0 0 0 0 0 0 0 0 0 0 0 0 0 0 0 0 0 0 0 0 0 0 0 0 0 0 0 0 0 0 0 0 0 0 0 0
0 0 0 0 0 0 0 0 0 0 0 0 0 0 0 0 0 0 0 0 0 0 0 0 0 0 0 0 0 0 0 0 0 0 0 0 0 0 0 0 0 0 0 0
0 0 0 0 0 0 0 0 0 0 0 0 0 0 0 0 0 0 0 0 0 0 0 0 0 0 0 0 0 0 0 0 0 0 0 0 0 0 0 0 0 0 0 0
0 0 0 0 0 0 0 0 0 0 0 0 0 0 0 0 0 0 0 0 0 0 0 0 0 0 0 0 0 0 0 0 0 0 0 0 0 0 0 0 0 0 0 0
0 0 0 0 0 0 0 0 0 0 0 0 0 0 0 0 0 0 0 0 0 0 0 0 0 0 0 0 0 0 0 0 0 0 0 0 0 0 0 0 0 0 0 0
0 0 0 0 0 0 0 0 0 0 0 0 0 0 0 0 0 0 0 0 0 0 0 0 0 0 0 0 0 0 0 0 0 0 0 0 0 0 0 0 0 0 0 0
0 0 0 0 0 0 0 0 0 0 0 0 0 0 0 0 0 0 0 0 0 0 0 0 0 0 0 0 0 0 0 0 0 0 0 0 0 0 0 0 0 0 0 0
0 0 0 0 0 0 0 0 0 0 0 0 0 0 0 0 0 0 0 0 0 0 0 0 0 0 0 0 0 0 0 0 0 0 0 0 0 0 0 0 0 0 0 0
0 0 0 0 0 0 0 0 0 0 0 0 0 0 0 0 0 0 0 0 0 0 0 0 0 0 0 0 0 0 0 0 0 0 0 0 0 0 0 0 0 0 0 0
0 0 0 0 0 0 0 0 0 0 0 0 0 0 0 0 0 0 0 0 0 0 0 0 0 0 0 0 0 0 0 0 0 0 0 0 0 0 0 0 0 0 0 0
0 0 0 0 0 0 0 0 0 0 0 0 0 0 0 0 0 0 0 0 0 0 0 0 0 0 0 0 0 0 0 0 0 0 0 0 0 0 0 0 0 0 0 0
0 0 0 0 0 0 0 0 0 0 0 0 0 0 0 0 0 0 0 0 0 0 0 0 0 0 0 0 0 0 0 0 0 0 0 0 0 0 0 0 0 0 0 0
0 0 0 0 0 0 0 0 0 0 0 0 0 0 0 0 0 0 0 0 0 0 0 0 0 0 0 0 0 0 0 0 0 0 0 0 0 0 0 0 0 0 0 0
Wind_Speed
11 9 13 14 16 17 17 15 12 9 8 4 3 3 3 3 4 5 7 7 8 8 8 9 9 9 9 10 10 11 11 11 11 11 11 10 10 10 9 9 9 9 9 9
12 12 13 13 15 16 16 14 12 9 6 2 3 3 4 4 4 5 6 6 7 8 8 9 9 9 9 9 10 10 11 11 10 10 11 10 10 10 9 9 9 9 9 9
12 13 13 15 12 13 13 11 11 10 5 5 4 3 3 3 3 4 5 5 6 7 7 8 8 8 9 9 9 9 10 10 10 11 10 10 10 10 9 9 9 9 9 9
9 11 15 7 5 7 8 7 6 4 4 5 4 4 4 3 3 3 3 3 4 5 6 7 8 8 8 9 9 9 9 9 9 9 9 9 9 9 9 8 8 8 8 8
8 12 10 7 6 7 8 6 4 5 5 6 6 6 6 5 3 3 2 2 2 4 6 6 7 8 8 9 9 9 9 9 9 9 9 9 9 8 8 8 7 7 8 8
9 11 10 6 6 4 6 7 5 5 6 7 6 5 4 4 3 3 2 3 3 4 6 6 6 7 8 8 8 8 8 8 8 8 8 8 8 8 7 7 7 7 8 8
10 9 4 4 5 6 9 4 5 5 4 4 3 4 5 4 4 3 3 4 4 4 5 5 6 7 7 7 7 7 7 7 8 8 7 7 7 7 7 7 7 7 7 7
8 9 4 4 4 3 4 6 6 5 5 5 7 7 6 5 4 4 4 4 4 4 5 4 5 5 6 6 6 6 7 7 7 7 7 6 7 7 7 7 7 7 6 7
0 2 6 4 4 5 5 6 6 6 6 6 7 6 6 5 5 5 5 5 4 4 4 3 3 4 5 4 5 6 7 7 7 7 6 6 6 6 6 6 6 6 6 6
3 5 5 5 6 6 6 7 7 7 7 6 7 7 6 5 5 5 5 4 3 4 4 3 2 2 2 3 4 6 7 6 6 6 6 5 4 4 4 4 5 5 5 5
4 5 5 5 6 7 8 8 8 8 7 7 7 7 6 5 5 5 4 4 4 4 3 3 2 1 1 2 4 6 6 6 6 6 5 5 4 2 1 2 1 1 2 2
2 3 3 5 5 6 8 8 8 8 8 7 7 7 6 5 5 5 5 4 4 4 4 3 2 2 1 1 3 5 5 5 5 5 5 5 5 5 8 6 8 8 7 3
3 5 6 5 5 6 7 7 7 8 8 8 7 6 6 5 5 5 6 5 5 4 4 3 3 3 2 2 3 4 4 4 3 4 5 5 5 5 5 5 9 9 8 7
6 6 6 5 5 6 7 8 8 8 8 7 6 6 6 6 6 6 5 5 5 4 4 4 4 4 3 3 4 4 4 5 4 4 4 4 4 4 4 4 4 4 5 6
5 5 6 6 6 6 7 7 7 7 7 7 6 6 6 6 7 6 5 5 5 6 5 5 5 5 4 4 5 5 4 4 4 4 4 4 4 4 4 4 4 4 3 4
5 6 7 7 7 6 6 7 7 6 6 6 6 6 6 7 7 7 7 7 7 7 6 6 6 5 5 5 6 5 5 7 5 5 5 4 4 4 4 4 4 4 3 3
5 5 6 7 7 6 6 6 6 6 6 6 7 6 6 7 8 8 8 8 8 8 8 8 7 6 6 6 5 5 5 7 7 5 5 5 5 5 5 4 4 4 4 5
4 4 5 6 7 7 7 7 7 7 7 7 7 8 8 8 8 8 8 8 9 10 10 9 8 7 7 7 5 5 6 6 6 6 6 6 5 5 5 5 5 6 5 5
5 6 7 8 8 7 7 7 8 7 7 8 9 10 10 9 9 9 9 9 10 10 9 9 8 8 9 9 6 6 7 7 7 7 7 7 6 6 6 6 6 6 6 5
7 7 8 9 9 9 9 8 8 8 8 9 10 10 10 9 9 9 10 10 9 8 8 8 8 9 9 10 8 7 8 8 8 8 7 7 7 7 7 7 7 7 6 6
8 9 10 10 10 10 10 9 9 10 9 9 10 10 10 9 9 9 8 9 9 9 8 9 8 8 8 8 8 8 9 9 8 8 8 7 7 7 7 7 7 7 7 7
8 9 11 11 11 11 10 10 10 11 11 10 11 10 10 10 10 10 11 8 8 8 7 8 9 10 8 8 8 9 9 9 8 8 8 7 7 7 7 8 7 7 7 6
9 11 12 12 12 12 12 11 11 11 11 11 11 11 11 9 8 8 9 8 8 10 9 9 10 10 8 8 9 9 9 10 9 8 8 8 8 8 8 8 7 7 6 6
11 12 12 12 13 13 13 12 12 11 12 12 11 11 10 9 9 9 9 10 10 10 11 10 11 10 8 8 9 9 9 9 9 8 9 8 8 8 8 7 7 7 7 8
12 13 13 13 12 11 12 12 13 12 12 10 12 11 9 8 9 9 9 11 10 9 10 11 11 10 9 9 10 9 9 9 9 8 8 8 8 7 7 7 7 6 6 6
12 10 10 10 9 8 8 9 9 8 9 9 9 9 8 8 9 8 8 11 12 10 9 8 9 8 9 10 10 10 9 9 8 9 9 8 8 8 7 7 9 7 7 7
12 10 9 9 8 8 8 8 9 9 9 9 9 8 8 8 8 9 9 8 8 9 8 8 8 8 8 9 9 9 8 8 8 8 7 7 7 7 7 8 7 6 6 7
Wind_Direction
238 217 203 206 207 209 219 233 243 236 235 212 184 186 153 153 161 170 171 174 176 177 176 178 177 179 180 181 179 181 184 185 186 187 187 186 184 185 187 192 193 191 194 196
222 218 216 214 211 212 221 229 240 243 233 135 119 137 145 152 158 167 168 173 177 179 179 181 180 180 176 179 178 180 185 188 184 185 185 184 183 183 185 190 193 193 197 199
216 207 213 219 214 212 215 224 234 237 221 151 157 139 129 134 144 151 156 164 174 178 179 178 177 177 176 174 175 180 184 184 182 184 184 183 182 182 186 188 191 197 198 203
212 199 217 207 205 219 208 213 229 220 171 165 139 109 92 98 116 122 136 152 164 170 170 169 168 169 171 170 173 180 182 181 178 184 184 181 181 183 186 189 193 197 198 203
213 210 210 182 179 200 203 204 207 193 173 152 140 142 107 72 75 92 104 119 147 162 160 161 164 164 168 170 172 178 180 180 177 181 182 180 183 185 189 192 194 198 199 202
215 218 216 185 157 192 215 198 170 180 172 161 177 190 114 75 69 70 74 94 121 139 142 148 156 161 169 173 174 181 181 179 175 178 181 183 186 189 192 191 194 201 203 206
217 215 201 98 137 187 213 163 142 161 159 160 139 61 91 92 77 75 81 97 115 124 129 138 153 164 173 175 177 182 179 172 172 176 181 183 184 189 190 192 195 203 202 205
214 215 173 75 176 197 77 94 119 120 115 101 95 95 92 85 81 78 83 93 104 112 114 127 150 168 175 179 177 176 174 170 170 175 181 179 183 188 190 192 193 199 205 210
247 77 68 66 73 72 91 106 105 106 101 108 105 97 85 81 77 72 73 78 88 105 108 113 144 173 177 171 173 172 167 169 171 174 180 178 181 183 185 192 201 201 201 207
122 105 99 88 85 86 91 96 94 97 101 104 98 91 78 71 68 65 65 69 76 94 102 106 118 152 161 165 173 168 165 163 163 164 171 169 175 181 188 196 203 205 205 207
133 121 112 88 83 89 94 94 93 93 93 93 93 87 77 69 65 61 61 57 60 73 83 91 103 119 142 168 169 166 163 163 165 163 156 142 124 78 127 91 29 252 217 213
120 125 121 113 100 101 101 98 98 98 94 87 86 87 79 70 65 61 62 63 66 68 73 80 87 87 91 140 168 164 158 159 160 153 142 139 134 110 62 61 61 55 41 35
81 90 92 102 100 98 98 99 98 96 94 89 82 81 78 73 65 61 57 58 60 62 64 70 76 76 77 108 137 145 145 144 148 139 137 146 147 141 126 88 69 62 55 55
105 109 109 108 104 100 101 100 96 93 89 87 84 79 75 73 66 57 51 51 56 61 62 65 71 71 74 97 111 120 125 119 122 121 129 136 135 134 134 128 117 97 75 74
99 104 111 108 104 103 104 104 100 95 92 87 83 78 75 72 66 56 50 53 63 65 59 62 66 65 71 96 108 110 110 113 117 118 124 123 121 121 118 116 112 105 96 86
104 111 118 116 111 109 109 109 103 97 92 91 85 79 77 76 69 61 53 51 59 60 56 60 61 59 65 86 102 102 94 84 90 103 107 110 108 105 101 101 99 93 86 80
125 124 125 122 120 113 106 100 100 100 98 95 90 90 90 86 78 68 61 58 58 56 52 54 55 60 68 73 84 92 93 92 89 91 86 86 89 89 87 89 91 90 79 58
121 126 127 127 120 110 102 99 99 100 99 97 95 92 87 82 77 71 68 69 68 59 48 44 48 61 68 71 74 83 90 90 88 85 82 78 79 82 84 82 79 75 72 68
105 112 116 118 116 111 104 100 98 96 95 95 95 91 87 81 75 70 68 65 62 58 47 46 48 61 67 68 69 79 83 86 86 84 83 82 78 74 73 72 70 67 66 63
107 113 114 112 111 111 107 102 99 96 94 96 95 92 86 81 78 76 71 65 52 47 50 49 59 63 63 61 59 72 75 78 81 80 77 76 74 72 69 69 67 64 62 59
112 114 114 111 107 105 103 101 98 96 94 92 91 89 87 82 76 74 73 71 57 47 56 61 60 61 62 62 65 69 70 72 73 74 74 73 73 71 69 68 67 64 61 58
117 118 116 112 109 104 100 99 98 97 94 92 90 89 89 86 83 77 68 65 61 45 55 61 61 56 54 62 72 72 73 74 74 73 72 71 71 70 69 69 68 65 61 58
113 111 111 110 107 103 99 96 94 93 91 88 86 85 81 77 75 77 74 63 63 58 60 60 51 50 52 69 71 70 71 71 70 70 71 70 70 70 68 65 63 61 58 55
109 107 107 107 106 103 99 95 93 90 89 85 81 80 81 81 77 74 77 73 66 69 69 58 48 48 58 70 70 70 68 68 68 69 71 70 68 67 66 64 63 60 56 52
108 108 108 108 105 102 102 103 98 93 90 85 81 76 73 73 78 78 79 78 74 74 77 69 57 54 63 67 67 67 66 64 63 65 67 66 65 65 63 60 59 58 56 51
105 103 100 97 97 103 106 103 99 96 92 89 83 78 77 79 82 85 84 82 78 73 71 72 70 66 67 68 68 69 71 72 68 65 64 63 62 62 61 60 59 55 51 46
102 100 99 97 95 95 96 95 94 93 91 91 90 86 84 83 83 83 83 81 79 75 71 70 71 70 70 71 71 71 69 68 65 63 62 62 62 61 59 57 54 51 47 46